This is the latest recevied weather packets stored in our database for station/object N0NB. If no packets are shown the sender has not sent any weather packets the latest 10 day(s).
| Time | Temp. | Humidity | Pressure | Rain* | Wind** | Luminosity | Snow |
|---|---|---|---|---|---|---|---|
| 1788383716 | 36.11° C | 42% | 1009.7 hPa | 0 mm | - | 559 W/m² | - |
| 1788383116 | 36.11° C | 43% | 1009.9 hPa | 0 mm | - | 580 W/m² | - |
| 1788382515 | 36.11° C | 41% | 1010 hPa | 0 mm | - | 596 W/m² | - |
| 1788381915 | 36.11° C | 43% | 1010.1 hPa | 0 mm | - | 619 W/m² | - |
| 1788381315 | 36.11° C | 42% | 1010.2 hPa | 0 mm | - | 638 W/m² | - |
| 1788380715 | 36.11° C | 42% | 1010.3 hPa | 0 mm | - | 657 W/m² | - |
| 1788380115 | 36.11° C | 41% | 1010.5 hPa | 0 mm | - | 669 W/m² | - |
| 1788379515 | 36.11° C | 42% | 1010.6 hPa | 0 mm | - | 684 W/m² | - |
| 1788378915 | 36.11° C | 42% | 1010.7 hPa | 0 mm | - | 696 W/m² | - |
| 1788378316 | 36.11° C | 45% | 1010.8 hPa | 0 mm | - | 707 W/m² | - |
| 1788377715 | 35.56° C | 43% | 1010.9 hPa | 0 mm | - | 716 W/m² | - |
| 1788377115 | 35.56° C | 45% | 1011 hPa | 0 mm | - | 727 W/m² | - |
| 1788376515 | 35° C | 50% | 1011.1 hPa | 0 mm | - | 737 W/m² | - |
| 1788375915 | 35° C | 47% | 1011.3 hPa | 0 mm | - | 745 W/m² | - |
| 1788375315 | 34.44° C | 48% | 1011.5 hPa | 0 mm | - | 751 W/m² | - |
| 1788374715 | 34.44° C | 48% | 1011.5 hPa | 0 mm | - | 756 W/m² | - |
| 1788374115 | 34.44° C | 49% | 1011.7 hPa | 0 mm | - | 756 W/m² | - |
| 1788373515 | 33.89° C | 50% | 1011.7 hPa | 0 mm | - | 748 W/m² | - |
| 1788372915 | 33.89° C | 51% | 1011.9 hPa | 0 mm | - | 747 W/m² | - |
| 1788372315 | 33.33° C | 51% | 1011.9 hPa | 0 mm | - | 744 W/m² | - |
| 1788371717 | 33.33° C | 50% | 1012 hPa | 0 mm | - | 737 W/m² | - |
| 1788371117 | 33.33° C | 52% | 1012.1 hPa | 0 mm | - | 727 W/m² | - |
| 1788370517 | 32.78° C | 55% | 1012.2 hPa | 0 mm | - | 722 W/m² | - |
| 1788369917 | 32.78° C | 53% | 1012.3 hPa | 0 mm | - | 716 W/m² | - |
| 1788369328 | 32.78° C | 54% | 1012.4 hPa | 0 mm | - | 704 W/m² | - |
* Rain latest hour (hover to see other rain measurements)
** Current wind speed in m/s (hover to see current wind gust speed)